Theta_e
329 323 316 312 312 311 313 313 317 326 331 332 331 331 331 331 331 331 332 332 333 333 334 335 336 335 332 330 327 324 322 319 315 311 311 312 312 312 312 310 314 322 323 323 324 324 325 325 327 328 329 327 321 319 317 314 312 312 314 316 317 318 319 320 321 323 325 327 326 325 325 325 325 325 325 324 323 322 322 324 326 328 329 330 329
325 320 315 312 311 310 312 312 314 319 328 331 329 329 329 329 330 332 332 333 333 332 333 333 334 333 331 330 327 324 321 317 313 311 311 312 313 312 313 312 312 316 318 318 319 319 320 321 321 321 322 320 316 315 314 313 312 314 316 317 319 319 320 323 324 325 327 328 327 326 326 326 325 325 326 326 325 324 323 323 324 326 326 326 327
321 317 314 312 311 310 311 311 313 314 320 328 327 325 327 328 329 330 332 333 333 332 332 332 332 330 330 327 324 321 318 314 311 312 312 312 313 312 312 313 312 312 313 313 314 314 314 316 317 317 319 317 315 314 314 315 314 316 318 319 320 321 323 325 326 327 327 327 326 325 325 323 323 323 323 322 322 324 325 325 324 324 323 323 324
320 316 314 311 310 310 310 311 311 311 313 320 324 321 325 328 328 330 332 333 334 334 333 332 330 328 326 323 319 317 314 312 311 311 312 312 312 312 312 312 313 312 312 312 311 312 311 312 313 314 315 315 314 313 314 315 316 319 319 318 320 321 323 325 327 328 328 327 325 324 323 323 322 322 320 318 317 317 320 324 325 323 321 319 320
319 316 313 311 310 309 309 310 309 311 310 314 319 318 323 328 329 331 333 333 334 334 333 331 328 326 323 319 316 314 312 310 312 312 311 312 312 312 312 312 312 312 312 312 311 311 312 312 312 312 312 313 313 313 314 316 319 322 320 317 318 318 320 323 326 328 329 328 326 325 325 325 324 324 322 319 318 315 314 317 320 319 318 317 316
320 316 313 311 310 309 309 310 310 311 311 312 313 315 322 328 331 333 334 333 333 332 330 328 325 323 321 318 314 313 311 310 315 315 311 312 312 312 312 312 312 312 312 312 311 311 311 311 311 311 311 312 313 315 317 317 319 321 319 316 317 317 318 322 326 328 329 329 328 327 327 326 325 326 324 320 319 316 311 310 311 313 315 316 314
320 317 314 311 310 309 309 310 311 311 312 313 310 315 323 328 332 333 333 332 331 330 327 324 322 321 319 316 312 314 312 310 314 313 311 311 312 311 311 312 311 311 312 311 311 310 310 311 310 311 311 312 313 316 318 317 316 318 317 315 315 315 316 320 325 327 327 328 328 328 326 326 325 326 326 323 320 315 310 307 307 309 310 311 311
320 318 314 311 310 309 309 310 312 312 314 315 314 320 327 330 332 333 332 330 329 326 322 320 321 321 316 312 314 319 319 313 311 311 312 312 311 311 311 311 311 311 312 312 311 310 310 310 310 310 310 312 313 315 317 318 316 315 314 314 314 314 316 319 324 326 326 325 326 326 326 326 325 324 324 324 321 315 309 307 306 307 307 308 307
321 318 314 312 310 309 309 309 311 312 315 317 320 325 328 330 330 330 327 324 321 318 316 315 320 321 314 311 317 322 323 317 311 312 312 311 310 311 311 311 311 311 311 311 311 310 310 310 310 310 311 312 313 315 316 317 316 315 315 315 315 315 317 319 323 325 326 325 324 325 324 325 324 324 324 321 318 312 307 306 306 306 306 306 307
323 319 315 312 310 310 309 309 310 312 316 318 322 326 326 327 325 323 319 316 313 312 312 312 319 322 315 314 319 321 321 318 316 318 315 310 310 310 311 311 310 311 311 310 310 310 310 310 310 310 311 312 313 315 316 316 316 317 317 317 317 316 317 318 320 321 323 323 323 322 321 321 321 322 322 318 314 308 306 306 306 306 307 311 312
324 320 315 312 311 310 309 309 310 312 316 318 319 322 322 322 320 317 313 311 311 311 310 313 320 324 318 315 315 316 318 319 319 319 315 310 309 310 310 310 309 311 310 310 310 310 310 310 310 311 311 312 313 315 316 317 317 317 318 318 318 317 317 318 319 319 320 320 319 318 316 316 318 320 318 313 309 307 306 306 306 305 309 314 314
323 320 316 313 311 311 310 309 309 310 314 317 318 318 319 319 317 314 311 310 310 309 310 317 323 323 319 315 313 315 318 319 316 313 313 314 313 310 309 309 309 310 310 310 310 310 310 310 310 311 311 312 313 314 315 316 317 317 317 317 318 319 320 320 320 320 321 320 319 318 313 312 315 318 316 311 308 307 307 307 306 305 307 308 309
323 320 317 315 312 311 311 310 310 309 310 314 316 316 316 315 312 311 310 309 309 309 311 317 320 318 316 315 315 317 319 319 315 312 314 318 317 312 308 309 309 310 310 310 310 310 310 310 311 311 311 312 313 314 315 316 316 316 317 318 319 320 320 321 321 321 321 321 320 317 313 312 313 316 315 310 308 308 307 307 307 306 306 304 306
322 321 319 317 315 313 312 311 310 310 309 310 313 313 311 310 310 310 310 310 309 310 310 311 312 312 312 313 314 315 318 319 318 315 313 314 315 312 309 308 309 310 310 310 310 310 310 311 311 311 312 312 313 314 314 315 315 316 316 318 319 320 320 320 320 320 320 319 319 316 314 314 312 314 314 311 310 310 309 308 308 307 307 306 305
323 323 321 320 318 316 314 312 311 311 310 310 310 310 310 310 310 310 311 310 310 309 309 309 309 310 310 310 311 311 313 315 317 316 312 311 312 310 309 308 309 309 310 310 311 311 312 312 312 313 313 313 313 314 315 315 315 316 316 317 318 318 319 319 319 318 318 318 318 316 315 314 313 311 312 314 312 311 311 309 309 308 307 306 305
323 323 323 322 321 319 317 314 312 311 310 310 310 310 310 310 310 310 310 310 310 309 309 309 309 309 309 309 310 310 309 309 311 312 312 310 309 309 308 308 309 309 310 311 312 312 313 313 313 313 313 313 313 314 315 315 315 316 316 317 317 317 317 317 317 316 317 318 317 316 315 314 314 312 314 315 311 310 311 309 308 307 307 306 306
322 323 324 323 322 322 320 317 314 312 311 311 311 311 311 311 311 311 310 310 310 310 309 309 309 309 309 309 309 309 308 309 309 309 310 310 310 311 309 308 309 309 310 311 312 313 314 314 314 313 313 313 313 314 314 315 315 316 316 318 319 318 317 317 317 316 316 317 316 316 315 313 313 313 315 316 311 311 312 309 308 307 307 307 307
324 322 323 324 324 323 322 321 318 315 314 313 313 313 313 313 313 313 312 312 311 310 310 310 309 309 309 309 309 309 308 308 308 308 309 309 311 312 309 308 309 309 310 311 312 313 314 315 315 314 314 314 314 314 314 315 315 316 316 318 318 317 317 317 317 316 316 317 317 317 316 315 313 313 315 314 311 311 310 309 308 309 309 307 308
326 323 322 323 324 324 324 323 321 319 318 317 317 317 317 317 317 317 316 315 314 313 312 311 311 310 309 309 308 308 308 308 308 308 308 308 309 309 308 308 309 309 310 311 312 313 315 315 316 316 316 315 315 314 314 315 315 316 316 316 317 316 315 316 315 316 317 317 318 318 317 315 313 314 314 314 313 311 308 308 308 308 309 308 308
329 324 322 323 323 324 324 324 323 322 321 321 321 321 321 321 321 320 320 319 317 316 315 314 313 312 311 310 310 309 308 308 308 307 307 307 307 308 307 307 308 308 309 310 312 313 315 316 316 317 317 317 316 316 316 316 316 315 315 315 316 316 315 315 315 316 316 317 317 317 317 315 313 313 314 314 313 309 308 309 308 308 309 308 308
330 326 323 322 323 323 324 324 324 324 324 323 323 324 323 323 324 324 324 323 321 320 318 317 316 315 314 312 312 311 310 309 309 308 307 307 307 307 307 307 307 308 308 310 311 312 314 315 316 317 317 317 317 317 317 316 316 316 316 316 316 317 316 316 316 316 316 316 316 316 315 315 313 313 314 313 309 307 309 309 308 309 308 308 307
331 327 325 324 323 323 323 324 324 325 325 324 324 324 324 325 325 326 326 326 325 324 322 321 319 318 317 316 316 315 314 313 312 311 310 309 308 307 307 306 306 307 308 309 310 312 313 315 315 316 317 318 318 318 318 318 317 317 317 318 318 318 318 318 318 317 317 317 316 315 315 315 313 313 313 312 310 309 309 308 309 309 309 309 308
331 327 326 325 325 324 323 324 324 325 325 325 325 325 325 325 326 326 327 327 327 327 326 324 323 321 320 319 318 318 318 317 316 315 314 312 311 310 309 308 307 307 307 308 309 311 312 313 314 315 316 317 318 318 318 318 318 318 318 318 319 319 319 319 319 319 318 318 318 317 315 315 315 314 314 314 314 313 311 310 311 310 310 310 309
330 328 327 325 326 326 324 325 324 324 325 325 325 325 326 326 326 327 327 327 327 327 328 327 326 325 322 321 321 320 320 320 320 319 319 318 316 313 312 311 310 308 308 308 308 309 311 312 313 314 315 315 316 317 317 318 318 318 318 318 319 319 319 319 319 319 319 319 319 318 317 316 317 316 316 317 318 317 316 315 314 314 313 311 310
329 329 328 325 326 327 326 325 326 325 324 325 325 325 326 326 326 326 327 327 327 327 328 328 328 327 326 324 323 322 321 322 322 321 321 321 320 318 316 315 313 311 310 309 309 309 310 311 312 312 313 314 314 315 315 316 316 317 317 317 318 318 318 318 318 319 319 319 319 319 319 319 318 318 318 319 319 318 319 318 318 318 317 315 314
330 329 326 325 326 327 327 326 327 326 325 325 325 325 325 326 326 326 327 327 327 327 328 328 328 328 327 326 326 324 323 323 324 324 323 323 322 321 320 319 318 316 314 313 312 311 312 312 312 313 314 315 315 315 315 316 316 316 316 316 317 317 317 317 317 318 318 318 319 319 319 319 319 319 319 319 318 318 319 319 319 319 319 318 317
328 328 326 325 326 327 327 326 326 326 326 325 325 325 326 325 326 326 326 326 326 327 327 327 328 328 328 327 327 326 325 324 326 327 326 325 325 324 322 322 321 320 319 317 316 315 315 314 314 315 315 316 316 316 316 316 317 317 317 317 317 317 317 317 317 317 317 318 318 319 319 319 319 319 319 319 319 319 320 319 319 320 319 318 318
326 326 326 325 325 326 326 325 325 325 325 324 324 325 325 326 326 326 326 326 326 326 327 327 327 327 327 327 326 327 326 326 327 328 328 327 327 326 325 325 324 322 322 321 320 320 319 318 317 317 317 317 317 317 317 318 318 318 318 318 318 318 318 318 317 317 318 318 318 319 319 319 319 319 319 319 319 319 320 320 320 320 320 319 319
326 326 326 325 325 325 325 325 323 324 323 323 323 324 325 325 325 325 325 325 325 325 326 326 326 326 327 327 326 326 327 327 328 328 328 328 328 327 326 326 325 324 323 323 323 323 323 322 322 321 321 320 319 319 319 319 319 318 319 319 319 319 319 319 318 318 318 318 319 319 319 320 320 320 320 319 319 319 320 320 320 321 321 320 320
326 326 326 325 325 325 325 325 323 323 324 323 323 323 324 325 325 325 325 325 324 325 325 325 326 326 326 326 326 326 327 327 328 328 328 327 327 327 327 327 326 325 324 324 325 325 325 325 325 325 324 324 323 323 322 321 321 320 320 320 321 321 321 321 321 320 320 320 320 321 321 321 322 322 321 321 320 320 319 319 319 320 321 321 320
325 326 326 325 325 326 326 325 324 324 325 325 324 323 323 323 324 324 324 324 323 324 324 324 324 325 325 325 325 325 326 327 327 327 327 326 326 325 326 325 326 326 326 326 326 326 326 325 325 325 325 325 325 325 325 325 324 324 323 323 324 324 324 324 323 323 323 323 322 323 323 322 322 322 322 322 321 320 320 319 319 319 320 320 321
325 325 325 325 326 326 326 325 325 325 325 325 324 323 323 323 323 322 322 321 322 322 322 322 321 323 324 324 324 324 324 325 325 325 325 325 324 324 324 324 325 326 326 327 327 327 326 326 326 326 325 325 325 326 326 326 325 325 325 325 325 325 324 324 324 323 323 323 323 323 323 323 322 322 321 321 320 320 320 320 320 320 320 320 320
324 324 324 325 325 325 325 325 325 325 325 325 324 324 324 323 323 322 321 321 321 320 320 319 319 320 320 321 322 323 323 323 323 323 323 323 323 324 324 324 326 327 327 328 328 327 327 327 327 326 326 325 325 325 325 324 324 325 325 325 325 325 324 324 324 323 323 323 323 323 322 322 322 321 321 321 321 321 321 321 321 321 321 321 321
322 323 324 324 325 326 326 326 325 325 324 324 324 324 323 324 323 322 321 321 320 320 320 319 318 318 318 318 319 320 321 321 321 321 321 322 323 324 324 325 327 328 328 328 328 328 328 327 327 326 326 325 325 324 324 324 324 324 325 325 325 325 325 325 324 324 323 323 323 322 322 321 321 321 322 322 322 322 322 322 322 322 322 322 322
321 320 321 322 324 325 326 326 325 325 325 324 323 322 322 323 322 322 321 321 321 321 321 321 320 319 319 318 318 318 319 320 320 320 321 321 322 323 324 325 327 328 329 329 328 328 327 327 327 326 326 326 326 325 325 325 325 325 325 325 325 325 324 324 324 325 325 324 324 323 321 321 321 322 322 322 322 322 322 322 322 322 322 322 322
319 318 319 322 324 324 325 325 325 324 324 323 322 322 321 321 321 322 322 322 322 322 322 322 321 320 319 318 318 317 318 318 319 319 320 321 322 322 323 324 326 327 328 328 328 328 327 327 327 327 327 327 327 327 326 325 325 325 325 325 325 324 323 322 323 324 324 325 324 323 322 321 321 322 322 323 323 322 322 321 321 321 321 321 321
318 318 320 323 324 323 324 323 322 321 321 322 322 321 321 320 320 321 322 322 321 321 321 321 320 319 318 316 316 316 316 317 318 318 319 320 321 323 324 325 325 326 327 327 327 328 328 327 326 325 325 325 326 327 327 326 324 324 325 325 324 324 323 323 323 322 321 323 325 324 323 322 322 322 322 322 323 322 321 320 321 320 320 319 320
320 320 321 322 323 322 321 320 319 319 320 321 321 321 321 321 321 321 321 320 319 319 319 318 318 317 317 316 316 316 316 317 318 318 319 320 320 322 324 325 326 327 327 327 328 328 328 326 325 325 325 326 327 327 327 325 323 324 324 323 323 323 324 324 323 320 319 321 323 323 323 323 323 322 322 323 323 322 321 321 321 321 321 320 320
320 322 323 324 324 323 321 319 318 319 319 320 321 321 321 321 322 322 320 318 316 316 316 316 316 316 316 317 316 316 317 318 319 320 320 320 320 321 323 324 324 325 325 326 327 326 325 324 324 325 326 326 326 326 326 324 323 324 322 321 321 322 323 322 322 321 321 321 323 323 323 323 322 322 323 323 323 323 322 322 322 322 322 322 322
320 322 325 325 325 324 322 320 318 318 320 321 322 322 321 321 321 320 318 316 315 315 315 315 316 316 316 317 318 318 320 322 323 322 321 321 322 321 322 323 323 323 323 323 323 323 323 323 323 322 322 322 322 324 324 323 322 322 323 323 321 321 322 323 322 321 320 322 324 324 323 322 321 322 323 323 322 323 323 323 323 323 323 323 322
321 322 324 324 323 322 321 318 317 318 319 320 320 320 319 318 317 316 315 314 315 315 315 315 315 315 316 317 318 318 321 323 324 324 324 325 325 324 324 324 322 322 322 321 322 324 323 322 322 322 321 321 322 323 323 322 321 322 324 323 320 321 324 325 323 321 319 321 323 323 322 321 321 321 321 322 322 322 323 323 323 323 323 323 322
319 319 320 321 321 321 320 317 317 318 317 318 318 318 316 316 316 315 315 315 316 316 316 316 316 316 317 317 317 318 319 321 323 325 326 326 326 325 325 325 322 322 324 323 323 324 324 324 324 324 324 323 323 322 323 324 323 323 323 321 320 321 322 322 321 321 321 322 323 322 322 321 321 321 322 322 322 322 322 321 321 321 322 322 321
317 316 316 317 319 319 318 317 317 317 316 316 317 316 316 315 316 316 316 317 316 317 317 317 317 317 317 317 317 318 319 320 322 323 324 324 325 325 325 324 322 325 328 325 322 323 326 327 327 326 325 324 322 321 324 326 325 323 322 322 321 320 319 319 320 322 324 323 322 322 321 320 319 320 321 321 321 321 321 321 320 320 320 321 321
316 316 315 315 316 316 316 316 316 315 315 315 315 315 316 317 317 317 318 319 318 318 318 317 317 317 316 317 317 319 321 321 322 322 323 324 325 324 324 324 323 325 328 325 323 325 328 328 327 325 324 324 322 321 323 324 324 324 323 322 321 321 321 321 322 323 322 320 320 320 321 319 317 317 318 319 319 320 320 320 320 321 321 321 320
316 315 314 314 314 314 314 314 314 315 314 314 314 315 317 317 318 318 319 320 319 318 318 317 317 316 317 318 319 320 321 322 324 324 324 323 324 324 324 325 325 326 327 325 323 324 327 326 325 325 325 324 323 323 325 325 326 325 323 323 323 323 323 322 322 321 320 320 319 319 320 319 317 315 316 319 320 319 319 319 319 319 319 318 318
315 314 314 314 314 314 314 314 314 315 314 314 315 316 316 317 317 317 318 318 317 317 316 317 318 319 320 321 321 322 322 323 324 325 324 324 324 324 324 325 325 326 326 325 324 325 327 328 327 326 325 324 324 326 325 324 325 324 322 323 324 323 321 321 321 321 320 320 319 318 319 319 319 318 316 316 317 317 318 317 315 315 315 315 315
314 314 315 315 315 315 315 315 315 315 314 315 315 316 316 316 316 316 317 317 316 317 317 319 320 321 322 323 324 325 324 324 324 324 324 325 326 326 327 328 328 329 329 328 328 329 329 329 327 325 325 325 326 326 324 323 323 321 320 322 321 319 319 320 321 320 319 319 318 319 320 320 320 320 318 315 313 314 314 314 314 313 313 313 313
314 315 315 315 315 315 316 316 316 316 315 315 316 316 315 315 316 316 317 318 318 319 321 322 322 322 323 324 324 324 323 322 322 322 323 324 327 328 327 328 329 329 328 325 324 325 326 325 323 323 326 325 324 324 322 321 320 319 319 320 320 319 320 320 319 317 318 319 319 319 319 319 319 319 317 315 313 314 314 313 314 313 312 313 313
315 316 316 315 315 315 316 317 317 316 316 316 316 316 316 317 318 318 319 319 320 322 323 323 324 325 325 324 322 321 321 321 320 320 321 322 323 324 322 322 323 323 321 320 320 321 321 320 318 318 319 318 320 322 319 319 320 321 321 321 321 321 319 319 318 316 318 319 319 319 319 318 317 315 314 314 314 313 312 312 312 312 312 312 313
317 318 318 317 317 316 315 315 315 315 316 316 316 316 317 319 320 320 321 322 322 323 325 326 326 326 325 322 320 319 321 322 320 318 319 319 319 319 318 318 318 317 317 317 317 316 316 315 314 314 312 313 315 317 318 320 322 322 322 321 320 318 317 319 319 317 315 316 318 318 317 315 314 314 314 314 314 312 311 311 311 311 311 311 311
317 317 317 317 317 316 315 315 314 315 315 316 316 317 318 319 320 321 322 322 324 325 326 327 327 325 322 321 320 320 321 321 320 319 318 317 316 315 314 314 314 314 314 314 313 313 313 312 312 312 311 312 312 312 314 316 316 316 317 316 315 314 315 317 317 316 315 316 317 316 314 314 314 314 313 312 311 311 311 310 309 310 310 310 310
Wind_Speed
11 7 6 6 6 7 8 11 13 13 12 12 12 12 11 11 12 12 13 13 12 11 10 10 9 8 7 7 7 7 9 11 11 12 13 14 14 14 13 11 10 11 10 10 11 11 11 11 10 9 8 8 8 8 8 8 9 11 13 14 13 12 12 12 13 14 16 17 18 20 21 21 21 19 18 16 16 15 14 13 13 14 15 14 12
12 9 7 8 7 8 8 10 12 12 12 12 12 12 12 11 11 12 12 12 12 11 9 8 7 6 5 5 6 6 8 10 11 12 14 14 15 16 16 15 13 11 9 8 9 9 10 9 9 8 7 7 7 7 7 9 10 12 13 14 14 14 14 14 15 15 16 18 18 20 20 20 19 18 17 16 16 15 14 13 11 11 12 11 10
12 10 8 9 8 9 8 10 11 11 12 12 11 12 12 10 10 11 11 11 11 10 9 7 6 5 4 4 5 6 8 10 12 13 14 15 15 15 15 16 15 14 12 11 11 10 9 9 9 8 7 7 7 7 9 10 11 12 14 14 14 14 14 14 15 15 15 16 17 19 19 18 17 16 15 14 14 14 13 12 11 10 9 8 7
12 11 10 9 9 9 9 10 11 11 11 12 11 11 11 10 10 11 11 11 10 10 9 7 6 4 3 3 5 7 9 11 12 13 14 14 15 15 15 15 15 15 15 14 13 12 11 11 11 10 9 8 8 9 10 10 11 12 13 14 13 13 13 13 14 14 14 14 15 16 16 15 14 13 12 12 12 11 11 10 10 10 9 7 6
11 11 10 9 9 9 10 10 11 11 12 13 13 12 12 12 12 12 12 11 11 10 8 6 5 4 2 4 7 9 12 13 13 13 14 14 15 14 14 14 14 14 14 14 13 12 12 12 12 11 11 10 10 10 10 10 11 12 12 12 11 11 11 11 12 12 13 13 13 13 12 11 11 11 9 9 10 10 7 6 5 5 5 5 4
11 11 10 9 8 9 9 10 11 11 11 12 13 14 14 13 13 13 12 12 11 9 6 5 4 5 5 7 10 12 13 13 13 14 14 14 14 14 14 14 13 13 13 13 13 12 13 13 13 12 12 11 11 11 10 9 10 11 10 10 10 10 9 9 10 10 10 11 11 11 11 10 10 10 7 6 8 9 5 4 3 2 2 2 1
11 11 10 9 9 9 8 9 10 9 9 10 13 16 15 14 14 12 11 11 10 7 5 4 6 8 8 10 12 12 13 13 13 14 14 13 13 14 14 13 12 12 12 13 13 13 13 13 13 13 12 12 11 11 10 8 9 9 9 8 8 9 8 8 8 7 7 8 9 9 10 9 9 9 7 5 8 9 5 6 6 4 3 2 2
12 11 10 10 9 9 8 9 9 8 9 13 17 18 16 15 14 12 10 9 7 5 4 5 9 11 11 11 12 11 13 13 13 13 13 12 13 13 13 12 12 12 12 12 13 13 13 13 13 13 12 12 11 11 10 8 7 7 7 8 9 9 9 7 6 6 4 4 6 6 7 6 6 5 4 3 8 7 5 7 7 5 4 3 2
12 11 11 10 10 9 9 9 9 9 12 16 19 18 16 15 13 11 9 7 6 6 7 9 10 11 13 12 11 11 12 13 13 12 12 12 13 12 12 13 12 12 13 13 13 13 13 13 13 12 12 11 11 11 9 8 7 7 8 8 9 10 9 7 6 5 4 5 5 4 3 3 2 2 3 5 7 4 5 6 6 5 4 3 3
11 11 11 11 11 10 10 10 10 11 15 17 18 17 15 14 12 10 9 9 9 9 11 10 10 11 12 12 11 11 11 12 12 12 12 13 13 12 11 12 12 12 13 12 12 13 13 13 12 12 11 11 11 10 9 8 7 7 8 8 9 9 9 8 6 5 5 5 5 5 5 4 4 4 5 5 3 3 5 5 5 4 5 5 5
11 11 11 11 11 11 10 11 11 12 15 17 17 16 15 14 12 11 11 11 11 11 11 11 10 11 11 11 11 11 11 11 12 12 13 13 13 12 11 11 12 12 12 12 12 12 12 11 11 11 11 11 10 9 8 7 6 6 7 7 8 8 8 8 7 6 6 5 6 6 7 6 5 3 4 3 2 4 3 4 5 6 6 6 5
13 12 12 12 12 11 11 11 12 12 13 16 16 15 15 14 13 12 11 11 11 11 11 11 11 10 11 10 10 10 11 11 11 12 12 12 12 12 11 11 11 11 12 11 11 11 11 10 10 10 10 10 9 8 8 7 6 5 5 6 6 6 7 7 6 6 6 6 7 8 9 8 5 3 3 3 2 3 3 4 5 6 5 5 5
15 14 13 13 13 12 11 11 12 12 12 14 15 15 14 14 13 12 11 10 11 11 11 10 10 10 10 10 10 10 11 11 11 11 11 11 11 11 11 11 11 11 11 10 10 10 9 9 9 9 9 8 8 7 7 6 5 5 4 4 3 4 5 5 6 6 6 6 7 7 9 11 7 4 3 2 1 2 3 4 5 6 6 6 5
16 15 14 14 13 13 12 11 11 11 12 13 14 14 14 13 13 12 11 11 11 11 11 10 10 9 9 9 9 10 10 10 10 10 10 10 10 11 11 10 10 10 10 9 9 9 9 9 8 8 8 7 7 6 6 5 4 4 4 3 2 2 3 3 4 5 6 6 7 7 9 12 10 5 3 2 2 2 3 4 6 6 7 6 5
16 16 15 14 13 13 13 11 11 11 12 12 12 13 13 13 13 12 11 12 12 12 11 11 10 9 9 8 9 9 9 9 9 9 9 9 10 11 11 10 10 9 9 9 9 9 8 8 7 7 7 6 6 5 5 4 3 3 3 3 2 1 2 3 4 5 6 6 6 7 10 12 12 7 2 1 1 2 3 4 6 6 7 6 5
16 16 14 14 13 13 13 12 11 11 12 12 12 13 13 13 12 12 12 12 12 12 12 11 10 10 9 9 9 9 9 8 8 8 8 9 10 10 10 9 9 9 9 9 8 8 8 8 7 7 6 6 5 5 4 3 2 3 3 3 3 3 4 4 5 6 6 5 6 8 10 12 12 9 3 0 0 1 3 4 6 6 7 6 4
16 15 14 13 12 12 12 12 11 11 12 13 13 13 12 12 12 12 12 12 12 12 11 11 10 10 9 9 9 9 9 8 8 7 8 8 8 8 9 9 8 8 8 8 8 7 7 7 7 6 6 6 5 4 3 2 2 2 3 3 4 5 6 7 7 8 7 6 7 10 11 11 12 10 3 0 1 1 3 4 5 6 5 5 5
16 15 14 13 12 11 11 11 11 11 12 13 13 13 12 13 13 12 12 12 12 12 11 11 10 10 9 9 9 9 9 8 8 7 8 8 7 8 9 9 8 8 7 7 7 7 7 6 6 6 6 5 5 4 3 2 2 2 2 2 3 5 6 7 8 9 8 8 9 11 12 13 14 10 3 1 2 2 2 4 5 5 5 6 4
17 16 14 13 12 11 11 11 11 11 11 12 12 12 12 12 13 13 12 12 12 11 11 10 10 10 9 9 8 8 8 8 8 8 8 7 8 8 8 8 7 7 6 6 6 6 6 6 6 5 5 5 4 4 3 2 2 2 2 2 3 4 6 7 8 9 9 9 10 10 11 13 13 8 3 1 2 3 3 3 4 5 5 6 4
17 17 16 14 13 12 12 11 11 11 11 11 11 11 11 11 12 12 12 12 12 11 11 10 10 10 9 9 9 8 8 8 8 8 7 7 7 7 7 6 6 6 6 5 5 5 5 5 5 5 5 4 4 4 3 3 3 3 4 3 3 5 7 7 9 9 9 8 8 9 10 11 11 6 3 3 3 4 4 4 5 6 6 6 6
18 19 18 16 15 13 13 12 12 12 11 11 10 10 10 10 10 10 11 11 11 11 10 10 10 10 9 10 9 9 9 8 8 7 7 6 6 6 5 5 5 5 4 4 4 4 4 4 4 4 4 4 4 3 3 3 3 4 5 4 4 6 8 8 9 9 9 8 8 8 9 10 11 7 5 5 5 5 5 6 7 7 8 8 7
21 21 20 18 17 15 14 13 13 12 12 11 10 10 9 9 9 9 9 9 9 9 9 9 8 8 8 9 9 9 9 9 8 7 6 6 5 5 5 4 4 4 3 3 3 3 3 3 3 3 3 3 3 3 3 3 4 4 5 4 5 7 8 9 9 10 9 9 9 9 9 10 11 10 6 7 8 6 6 8 9 9 9 8 8
22 23 21 20 18 17 17 15 14 13 13 12 11 10 9 9 8 8 8 7 7 7 7 7 7 7 6 7 8 9 9 9 8 7 7 6 5 5 4 4 3 3 2 2 2 2 2 1 1 1 1 2 2 3 3 4 5 5 5 5 6 7 8 9 9 9 9 9 9 9 9 10 11 11 9 9 9 9 9 9 9 10 10 9 10
24 23 22 21 20 19 18 16 16 14 14 13 12 11 10 9 8 7 7 7 6 6 5 5 6 6 5 5 6 7 7 8 7 7 6 5 5 5 4 3 3 2 2 1 1 1 0 1 1 2 2 3 3 4 5 6 6 6 6 6 6 7 8 9 9 9 10 10 10 10 10 10 10 11 10 9 10 12 11 9 9 11 11 10 10
25 23 22 22 21 20 19 18 17 16 15 14 13 12 11 10 9 9 8 7 6 5 5 4 4 5 5 5 4 4 5 6 6 5 4 4 3 4 4 3 3 2 1 1 0 1 2 2 2 3 3 4 4 4 6 7 7 7 7 7 7 8 9 10 10 9 10 10 10 10 10 10 10 11 11 9 10 13 13 10 10 13 14 11 10
25 25 23 22 21 20 19 19 17 16 16 14 14 13 12 11 10 9 9 8 7 7 6 5 4 4 4 4 3 3 3 4 4 3 2 2 2 2 2 3 3 2 1 1 1 2 3 4 4 5 5 5 5 5 6 7 7 8 8 8 9 9 10 11 11 11 11 11 11 11 11 11 11 12 11 10 10 13 13 10 10 15 15 11 13
24 25 24 22 21 20 19 18 17 17 17 16 16 14 13 12 11 10 10 9 8 8 7 6 5 4 4 3 3 3 2 3 3 1 0 0 1 2 1 2 2 2 2 2 2 3 4 5 5 6 6 7 7 7 7 8 8 8 8 9 10 10 11 12 13 13 13 12 12 12 12 12 11 12 12 12 12 12 11 10 12 17 13 10 18
23 24 24 22 21 20 19 18 17 17 17 16 16 15 14 14 13 12 11 10 10 9 9 8 7 6 5 5 4 4 4 2 1 2 3 2 2 3 3 3 3 3 3 3 3 3 5 6 6 7 7 8 8 9 10 10 10 10 10 11 11 12 12 13 14 14 15 14 13 13 13 13 13 13 13 13 13 13 12 12 15 19 14 12 17
23 24 24 23 21 20 19 18 16 16 15 15 15 15 15 15 14 13 12 12 10 10 10 10 10 9 7 7 6 5 5 4 3 4 5 5 5 5 5 5 5 6 6 5 6 6 6 7 7 8 9 9 10 10 11 12 12 12 13 13 13 13 13 13 14 15 16 16 15 15 14 15 15 15 15 15 15 14 14 14 14 17 18 17 17
23 23 24 24 22 21 20 19 17 15 15 14 14 14 15 15 14 13 13 13 10 10 10 11 11 11 9 8 8 8 6 6 6 7 7 7 7 7 7 7 7 8 8 8 8 8 9 9 9 9 10 11 11 12 12 12 12 13 14 14 14 14 14 14 14 15 16 17 18 17 16 16 16 17 17 17 18 17 17 16 15 15 18 21 20
23 24 24 24 23 23 21 20 18 16 15 15 14 14 14 14 14 14 13 12 11 10 10 10 10 11 10 10 10 9 9 8 9 9 9 9 9 9 9 9 8 9 10 10 10 10 11 11 12 12 12 13 13 13 13 13 13 13 14 14 14 15 16 16 16 16 17 17 18 19 19 19 19 19 18 19 19 19 18 18 18 16 16 19 20
24 24 22 22 23 23 21 20 19 17 17 16 15 14 13 13 14 13 12 11 11 10 9 9 9 9 10 10 10 10 10 10 10 11 10 10 11 10 11 10 10 10 11 11 11 12 12 13 13 14 15 15 15 15 15 16 16 15 15 15 15 16 17 17 18 17 18 18 18 20 20 20 21 21 20 20 19 19 19 19 20 20 18 19 19
25 23 21 22 22 22 21 20 19 19 18 17 17 15 14 14 14 12 11 10 10 10 9 9 9 9 10 10 10 11 11 11 11 12 12 12 12 12 12 12 11 12 12 12 13 13 13 14 14 15 16 16 16 15 16 18 17 17 17 17 17 17 18 18 19 18 19 19 19 20 21 21 20 20 21 21 21 21 21 22 22 22 22 22 21
24 23 23 23 22 21 20 20 20 20 19 18 18 17 16 15 14 13 11 10 10 10 10 10 10 10 11 11 11 11 12 12 13 13 13 13 13 13 13 13 13 14 14 14 14 14 15 14 14 16 16 16 17 16 17 19 18 19 19 18 19 18 19 20 20 20 21 20 20 21 21 21 20 20 21 22 23 24 24 25 25 25 25 25 25
23 23 22 21 20 20 20 20 21 20 19 18 17 17 16 15 15 14 13 12 11 11 11 12 12 12 12 12 12 12 13 13 13 14 14 14 15 15 15 15 15 16 16 16 16 16 16 15 15 16 17 17 18 18 19 19 20 20 20 20 20 19 20 21 22 23 24 23 23 22 21 21 21 22 23 24 25 25 26 26 26 27 27 28 28
24 23 21 20 20 20 20 20 20 20 20 18 17 17 17 16 15 15 14 14 14 13 13 13 13 14 14 14 13 13 13 13 14 15 15 16 16 17 17 17 18 18 18 18 19 19 17 17 16 17 19 19 20 21 21 21 21 21 20 20 20 21 23 24 24 25 25 25 25 24 23 23 23 24 25 26 27 27 27 27 27 27 28 29 29
24 23 22 22 21 20 20 20 20 19 18 17 17 17 17 17 16 16 16 16 16 15 14 14 14 15 15 14 14 13 14 14 15 15 16 17 18 19 19 19 20 20 20 20 20 20 19 19 19 19 20 21 21 22 22 22 22 21 21 21 21 23 25 26 27 26 25 26 26 26 25 25 25 26 27 27 27 27 26 26 26 27 27 28 28
24 24 23 23 22 21 21 20 20 19 18 17 16 16 17 18 17 17 17 17 16 15 14 15 15 15 15 14 14 13 14 14 15 15 16 16 17 19 20 20 21 21 22 22 21 20 20 20 20 20 21 21 21 22 23 23 22 21 21 22 23 25 27 27 27 26 26 27 27 27 27 27 27 26 26 26 25 25 24 24 25 25 26 26 26
25 25 25 25 25 23 22 21 20 19 19 18 17 17 18 18 19 19 19 18 16 15 15 16 15 15 15 15 15 14 14 15 15 15 15 15 14 15 17 16 17 19 20 20 20 20 19 20 21 21 21 21 21 22 24 23 22 21 23 24 25 25 26 27 27 26 25 26 27 27 27 28 27 26 24 24 25 25 24 24 25 26 26 26 27
26 27 27 28 27 26 25 23 21 20 20 20 20 19 20 20 20 20 20 18 16 15 15 15 15 15 15 15 15 15 15 16 16 16 16 15 14 14 14 13 14 15 16 18 18 17 17 17 18 19 20 20 21 21 23 23 23 24 26 26 25 26 27 28 28 27 26 26 25 26 27 28 27 26 25 24 26 27 27 28 28 28 29 30 30
28 29 29 30 29 28 27 25 22 22 22 23 22 22 21 20 20 19 18 16 15 15 15 14 14 14 14 14 15 15 16 17 16 16 16 17 17 16 15 15 15 14 14 14 14 15 16 15 15 16 16 17 19 19 20 21 23 25 27 28 29 29 29 29 29 28 26 24 24 26 29 28 26 25 25 24 25 27 29 30 31 31 31 31 31
29 30 30 30 30 29 28 25 23 23 23 23 23 22 20 19 18 16 14 14 15 15 14 13 13 13 13 14 14 14 15 15 15 16 16 17 18 17 17 17 15 11 12 14 13 13 14 14 13 14 14 17 20 19 19 21 22 24 26 29 32 31 30 30 30 28 26 26 28 30 30 29 28 26 25 24 25 27 30 31 32 32 31 30 31
28 28 28 28 29 30 28 26 25 24 23 23 23 21 20 19 18 16 14 13 14 14 13 13 13 14 14 14 14 13 13 14 14 14 16 16 16 16 16 17 13 11 15 17 13 11 14 14 13 15 16 20 22 19 18 20 22 23 23 26 30 33 32 29 28 29 31 33 32 31 31 32 32 29 27 27 29 30 31 32 31 30 29 30 31
29 28 28 28 29 29 28 27 26 25 24 23 22 21 21 20 19 18 16 15 14 14 14 15 15 15 14 14 13 12 12 13 12 13 14 14 15 15 14 14 12 11 15 16 14 14 17 16 15 17 18 21 21 18 17 19 21 21 21 25 28 27 27 26 30 34 33 31 30 31 33 34 33 30 29 31 31 31 31 31 30 30 30 31 33
29 29 28 28 28 27 26 26 25 25 24 23 22 22 22 22 21 20 19 19 19 18 18 17 16 14 13 12 12 11 11 12 11 12 13 12 13 13 12 12 11 11 13 15 14 13 14 14 15 16 17 20 21 21 21 21 22 19 19 26 26 21 23 29 35 35 30 29 32 32 31 32 33 32 31 31 31 32 33 33 33 33 33 34 35
29 28 27 28 27 26 26 26 26 25 24 23 23 23 23 23 23 23 23 22 21 20 18 15 13 13 11 11 11 11 11 11 11 12 12 11 12 11 10 11 11 11 13 14 14 13 15 16 15 15 17 20 22 23 23 22 22 21 21 27 26 23 28 33 34 34 34 35 35 33 33 34 35 35 34 33 33 34 35 35 35 34 33 34 34
27 26 27 27 27 27 26 26 26 25 24 23 23 24 24 24 24 24 23 22 21 18 15 13 12 12 11 11 11 11 12 12 12 12 11 10 10 9 10 12 14 13 13 15 15 17 18 16 14 15 17 17 18 20 21 20 22 22 21 24 24 24 27 29 30 33 38 40 38 37 38 38 37 38 38 36 36 36 35 34 33 33 32 31 30
25 26 26 27 27 27 27 27 26 25 24 24 24 24 25 24 24 24 23 22 20 17 14 14 14 13 13 13 13 14 14 14 13 11 10 9 9 10 12 13 15 16 16 16 16 16 16 16 15 16 16 15 16 20 21 20 21 22 21 21 22 22 23 26 28 30 34 42 44 41 39 39 38 39 41 40 37 35 35 34 34 34 33 30 29
25 26 26 26 26 27 27 27 27 27 26 26 26 26 25 25 24 23 23 21 19 16 15 16 15 14 14 15 16 16 14 13 12 10 10 10 11 13 13 13 14 16 17 17 16 17 18 19 18 17 18 18 18 18 19 19 19 20 20 19 20 21 22 24 25 26 30 37 43 42 40 42 42 41 41 41 38 36 35 34 34 35 33 31 30
27 27 27 27 28 28 28 28 28 28 27 27 27 27 27 26 25 24 22 20 18 17 17 17 17 17 17 18 17 15 13 13 11 9 10 10 11 11 12 12 13 15 15 16 16 16 16 17 17 17 18 17 17 17 16 15 16 17 18 19 21 23 22 23 24 26 27 30 37 42 42 43 45 44 42 40 39 38 35 33 33 34 32 31 32
28 29 29 30 30 30 30 29 29 29 29 29 28 28 27 26 25 23 22 20 19 18 19 19 20 19 19 18 15 13 13 13 12 11 10 9 9 9 9 10 10 10 11 12 13 13 13 13 13 14 14 14 15 15 14 15 17 18 18 20 22 21 20 23 25 25 25 27 33 39 41 40 43 44 42 41 40 38 36 35 34 33 33 33 33
Wind_Direction
157 140 127 120 119 128 137 150 156 153 143 139 133 129 124 117 110 106 106 105 107 108 107 107 111 109 101 96 87 77 68 67 72 80 87 88 88 86 91 111 127 120 113 111 112 111 109 109 108 106 98 85 74 67 64 61 68 75 79 81 81 82 82 80 77 78 80 79 78 76 73 71 71 71 74 77 79 81 80 80 81 83 82 82 85
139 134 128 119 119 124 135 147 156 160 150 144 137 135 132 127 118 113 112 110 112 115 117 120 121 117 107 102 94 77 65 72 78 86 90 87 86 85 88 97 110 117 115 111 114 112 108 109 111 111 102 88 78 73 71 74 81 84 85 85 83 82 80 78 78 81 84 85 84 82 80 75 73 73 73 73 75 78 79 80 79 80 79 78 81
131 130 125 118 117 122 135 144 151 160 159 158 148 142 142 135 125 120 116 114 118 119 123 131 129 117 104 96 88 77 73 80 85 89 90 89 88 89 91 94 100 104 105 104 104 103 103 107 114 117 114 104 91 86 84 85 86 86 88 91 88 83 81 79 81 83 86 90 91 90 88 82 75 73 72 71 70 71 74 77 78 76 74 74 72
131 125 122 117 114 120 133 141 145 152 160 168 162 152 146 134 128 126 122 120 123 125 129 138 138 122 104 83 78 83 90 90 89 89 88 90 92 93 93 95 99 100 103 102 100 101 102 104 111 116 117 110 98 92 90 88 85 85 88 90 89 84 82 82 84 86 88 92 95 96 92 87 81 76 74 69 62 61 65 72 77 75 71 70 72
130 122 120 115 114 118 129 138 142 148 155 164 164 155 142 130 128 128 126 129 131 137 145 150 151 139 117 83 87 95 97 93 91 92 91 92 93 93 92 94 95 96 101 101 101 99 98 99 103 107 108 105 99 96 93 87 82 82 82 82 83 81 81 83 86 89 91 93 95 92 85 83 84 80 72 68 55 48 58 69 80 78 65 64 73
129 121 118 115 114 115 123 132 139 146 150 157 158 149 141 133 131 132 135 140 144 150 153 150 141 125 115 96 97 99 98 94 91 93 92 92 92 92 90 90 91 91 95 98 98 96 97 97 98 101 102 103 102 100 97 90 83 82 77 74 74 72 74 78 82 88 98 101 98 89 81 77 78 77 68 72 49 37 60 82 91 103 69 66 63
130 121 116 113 109 111 116 122 129 133 134 141 145 143 141 139 139 142 146 147 148 151 145 130 119 116 117 102 98 100 99 97 93 92 93 93 93 93 91 91 92 93 94 97 97 95 97 97 98 101 103 106 106 106 102 93 85 82 73 65 62 59 63 69 75 82 99 110 107 98 89 79 76 78 74 71 29 23 75 93 91 96 84 75 21
127 119 114 111 108 111 115 118 119 118 120 128 136 141 142 144 145 147 150 151 148 144 138 128 116 114 117 107 99 99 99 99 96 95 97 96 95 96 95 95 96 98 98 99 100 98 98 99 101 103 107 110 111 110 106 95 82 73 61 50 48 49 55 61 67 66 69 84 97 99 95 83 70 72 68 28 1 13 98 100 89 84 74 60 357
124 116 113 112 111 115 119 121 117 118 126 132 139 143 145 149 150 150 150 147 141 134 132 130 118 111 114 111 105 99 97 98 97 98 100 102 102 101 99 98 97 99 100 101 103 103 104 104 105 107 110 112 114 113 109 98 78 59 48 41 41 48 56 60 59 52 45 47 51 52 60 63 32 360 344 337 345 29 108 101 86 70 46 28 9
127 117 116 115 115 118 122 124 121 125 133 138 144 146 147 151 150 147 143 133 130 128 129 128 120 112 112 111 107 102 101 100 100 99 101 106 109 105 99 98 99 101 103 104 106 106 107 107 107 108 110 113 115 114 109 97 77 58 46 38 35 40 54 60 54 48 48 46 39 27 18 1 335 311 311 327 357 100 109 99 82 53 34 39 45
137 124 120 118 118 119 123 127 127 130 138 143 146 148 150 151 146 139 135 129 126 125 127 127 120 114 113 114 111 106 105 102 100 101 101 106 111 109 103 101 102 103 105 107 106 105 106 107 106 107 110 113 114 112 105 94 78 62 47 35 28 28 42 52 54 57 60 54 42 29 16 0 344 339 345 359 95 122 99 79 61 44 41 48 36
144 131 124 121 121 121 123 127 130 132 139 144 145 149 151 147 143 137 131 125 125 124 124 125 118 113 112 115 118 113 108 102 99 104 105 107 111 112 107 103 101 101 105 107 106 105 105 105 104 105 108 111 111 111 104 96 85 67 50 36 28 25 27 32 35 40 40 37 27 18 14 5 348 334 351 10 96 110 65 48 41 38 28 28 21
145 134 129 124 122 122 124 126 130 130 136 145 146 146 146 142 136 131 126 122 123 123 122 122 117 113 110 108 114 114 110 107 103 107 110 109 110 112 111 107 103 102 104 104 103 102 101 101 101 102 105 109 110 111 108 106 101 88 74 59 43 32 27 23 21 20 17 14 9 10 12 8 1 335 335 26 68 49 41 36 31 31 19 23 26
147 139 132 127 124 121 122 125 129 128 131 140 144 141 139 135 130 125 120 119 120 120 118 119 119 115 112 104 107 111 109 109 107 109 112 112 111 112 114 113 109 105 104 101 100 96 94 97 99 102 104 108 110 111 111 111 108 96 93 94 81 38 24 15 16 12 4 360 5 11 7 4 5 347 326 9 23 12 31 34 24 25 23 24 33
149 143 136 131 127 122 121 122 128 131 130 131 135 134 133 130 125 122 117 117 117 116 112 111 113 110 108 102 105 110 107 106 103 105 112 118 116 115 119 119 115 109 103 98 96 93 91 95 97 99 102 105 107 110 112 110 98 81 82 86 79 42 360 354 13 14 6 6 10 8 2 3 5 0 334 350 27 39 29 29 20 18 17 15 31
152 148 142 137 132 127 124 121 125 132 132 128 129 129 129 127 121 119 116 118 117 114 112 108 108 107 106 102 106 109 107 107 100 98 104 114 119 122 123 120 118 109 102 96 93 94 92 94 96 98 99 101 104 107 114 107 82 64 56 47 32 13 1 5 20 20 17 16 11 4 1 2 4 7 19 25 348 32 10 10 15 11 10 10 21
158 155 150 145 139 132 127 124 125 127 130 128 127 126 125 123 118 117 115 117 116 113 112 109 109 106 106 104 108 111 109 106 100 96 97 104 112 120 122 119 118 110 103 99 94 92 90 93 95 100 100 102 104 107 114 100 76 59 44 38 14 354 355 0 7 8 11 13 8 2 358 359 359 3 17 7 308 350 12 3 5 5 12 18 18
164 163 159 154 148 140 133 128 128 125 126 126 124 123 120 120 116 113 112 112 113 113 113 111 109 107 107 106 108 111 109 106 101 98 96 98 98 102 113 118 119 112 106 101 96 91 87 90 92 96 98 100 103 104 105 85 70 54 37 33 348 335 344 350 358 2 6 10 6 358 355 356 353 355 359 315 301 296 360 3 358 1 6 11 12
169 169 165 164 159 152 147 138 135 129 127 126 123 123 120 119 115 112 110 109 109 110 112 110 110 109 109 108 107 109 108 108 103 99 97 96 96 98 109 118 120 116 113 106 99 96 92 89 89 92 93 94 96 95 89 66 49 26 14 11 331 335 346 349 0 5 6 4 359 356 354 352 349 348 351 326 295 302 333 347 349 355 354 355 355
175 174 171 170 170 166 163 153 146 139 136 133 128 128 124 121 117 115 111 108 109 107 109 108 109 110 112 112 110 111 109 108 104 100 97 95 98 101 110 118 123 124 121 116 107 105 101 93 89 87 85 82 80 77 67 52 30 11 12 14 348 349 355 356 5 7 6 2 354 352 348 348 351 350 332 319 310 316 322 324 334 339 338 339 340
182 180 176 176 178 178 176 169 162 155 150 146 141 138 131 129 123 118 114 110 110 108 110 109 109 110 112 114 111 110 107 104 102 100 100 100 101 103 111 119 125 130 126 122 114 107 104 96 88 78 74 70 60 53 46 41 25 14 18 20 357 354 1 5 10 11 7 3 356 350 346 346 350 349 321 314 317 309 309 318 323 321 322 322 321
189 184 181 182 183 185 185 181 178 170 164 159 154 150 143 141 132 125 121 116 115 112 114 113 113 114 114 115 111 109 104 102 101 100 103 104 107 106 111 117 123 133 132 119 104 101 102 93 84 69 62 54 41 30 19 11 9 12 14 11 354 351 358 5 10 13 10 6 2 354 349 346 346 350 334 328 331 319 309 311 313 311 313 309 307
193 189 186 186 187 191 191 189 188 182 178 173 168 165 160 156 147 141 136 131 129 122 122 120 121 122 121 119 116 113 107 104 99 96 97 96 101 102 105 111 120 133 135 114 90 94 101 84 65 34 20 11 4 357 346 341 346 354 359 356 349 344 346 355 3 6 5 3 2 358 354 348 347 350 344 339 342 338 328 320 319 314 310 303 300
197 195 190 190 190 194 195 193 194 193 189 185 184 181 175 173 168 162 157 152 149 144 143 137 130 129 133 131 125 124 116 108 102 95 88 81 83 86 89 92 102 121 127 118 87 67 48 359 345 333 324 327 328 329 327 324 328 335 341 343 343 338 334 341 352 354 354 352 352 353 352 348 345 344 341 337 337 337 337 337 338 331 319 305 302
198 197 194 195 194 195 198 197 197 198 196 194 193 193 192 189 186 182 179 176 174 175 172 166 153 143 148 151 147 140 128 116 108 101 89 76 67 73 78 73 75 84 97 113 41 319 309 317 324 319 315 317 314 316 315 312 317 323 327 332 333 331 328 331 338 340 341 342 341 343 342 340 338 337 333 323 322 327 327 328 339 340 327 310 318
200 201 198 197 197 196 199 200 199 200 201 201 200 201 202 202 201 197 195 195 193 197 201 200 189 178 178 172 170 172 155 133 116 107 97 82 43 34 59 58 46 31 19 359 339 319 312 311 315 316 315 313 308 308 304 303 309 314 319 324 325 324 324 324 327 329 330 333 332 333 332 330 329 328 324 314 312 317 312 304 317 333 331 316 317
206 207 204 202 200 199 201 204 203 201 201 202 205 206 207 211 212 209 209 210 208 210 217 222 220 217 221 217 204 214 213 161 130 147 226 90 327 322 356 8 353 343 339 342 335 322 313 307 309 312 311 311 312 313 308 304 306 310 316 319 320 321 322 322 321 322 322 325 325 325 324 322 321 319 317 312 310 308 296 277 295 320 326 305 300
214 211 210 210 208 206 206 209 207 203 201 202 206 208 211 215 217 219 219 218 218 218 221 228 235 237 237 245 241 237 250 243 179 226 259 265 279 286 290 300 297 292 297 303 303 302 303 302 306 308 310 312 313 313 310 311 313 315 318 317 319 319 320 320 318 317 316 317 319 319 318 317 315 313 311 308 306 300 290 274 286 305 302 290 295
218 215 214 215 215 215 214 217 215 209 208 209 210 210 212 217 221 224 226 227 226 222 222 225 234 242 242 248 255 255 261 268 260 253 261 267 271 271 275 281 283 286 289 291 292 291 292 293 298 302 306 309 309 309 310 314 317 317 316 316 317 317 317 316 315 313 312 312 313 314 313 312 311 310 308 306 304 298 294 285 282 291 287 288 299
219 217 216 217 219 219 220 224 224 220 218 217 218 217 215 218 223 226 228 232 228 222 224 223 228 237 244 248 255 261 262 262 263 263 265 268 270 271 275 277 281 289 293 297 298 297 297 297 297 300 302 303 304 305 307 310 311 312 311 312 313 312 312 311 310 307 306 307 308 309 308 307 306 305 305 304 304 300 298 296 287 284 280 284 294
218 217 216 217 220 222 223 226 228 228 227 225 226 226 223 221 223 223 224 226 224 223 226 226 227 231 241 246 251 257 259 259 261 265 268 269 272 274 276 278 282 288 294 300 301 300 300 300 301 302 301 300 301 301 302 301 300 303 304 306 308 307 308 306 304 302 301 301 302 304 303 303 303 302 303 302 304 304 302 301 295 291 284 281 285
216 216 216 215 217 221 223 226 229 231 231 232 231 230 231 230 228 226 222 222 224 228 230 233 232 231 238 244 249 253 256 258 258 262 266 268 271 275 277 280 284 286 291 296 295 297 298 300 302 302 302 300 300 301 301 299 299 300 299 300 302 302 305 304 303 303 301 300 299 299 298 298 299 299 301 302 303 305 304 304 301 299 295 288 286
217 215 215 215 215 218 221 223 226 230 232 234 235 234 235 235 236 234 231 229 229 234 239 242 242 240 243 245 248 252 257 261 260 261 262 264 268 271 275 278 281 283 285 286 286 290 292 295 299 301 303 301 301 303 303 303 304 303 301 302 302 302 305 304 305 305 302 302 300 298 296 294 295 296 298 301 302 303 302 302 301 300 299 297 295
220 216 215 214 215 217 219 222 225 229 232 233 235 234 233 233 235 236 237 238 237 242 248 251 252 250 251 250 251 252 256 261 263 265 265 265 266 267 271 273 276 277 278 279 280 284 286 290 296 300 302 302 304 306 304 304 304 303 303 303 302 302 304 303 304 303 302 302 301 297 295 294 294 294 297 299 299 299 298 298 297 297 296 295 294
222 220 218 213 213 217 220 224 226 229 230 232 233 232 232 229 229 233 236 238 240 245 251 256 259 259 259 258 258 256 256 258 261 265 267 268 270 269 270 270 270 271 272 275 276 278 282 287 293 296 299 301 304 306 305 303 301 300 300 300 299 300 300 301 301 301 301 301 299 298 296 293 293 294 295 296 296 296 297 297 295 294 294 293 292
222 222 220 216 216 218 221 225 228 230 229 230 232 232 231 228 227 230 234 238 241 244 247 251 255 259 263 264 265 265 262 262 260 261 263 265 268 270 271 271 271 270 271 273 275 279 284 288 291 293 296 299 301 303 304 302 299 298 298 297 296 296 296 297 297 297 298 297 296 298 296 293 293 293 294 295 296 297 297 297 296 295 293 291 291
222 222 221 221 221 220 221 224 227 229 229 229 230 231 231 231 230 230 234 237 240 244 246 247 249 253 259 264 266 268 269 269 267 264 263 262 264 266 266 266 268 270 271 272 274 280 285 288 289 291 294 297 299 301 301 299 297 296 297 297 296 294 294 296 297 296 295 293 293 295 295 295 295 295 296 296 297 298 296 297 297 296 294 291 291
222 222 223 226 226 226 224 225 227 228 228 228 229 231 232 233 235 236 237 238 240 244 246 247 249 251 255 259 261 264 267 271 273 273 273 272 272 268 264 264 265 266 268 271 275 278 282 285 289 293 295 295 297 298 298 298 297 295 295 297 298 298 297 297 299 296 292 291 293 296 298 298 298 298 300 301 300 300 297 296 296 295 293 292 292
221 222 225 228 230 231 229 228 228 227 227 227 228 231 232 234 236 238 240 241 241 242 244 247 250 252 254 257 259 262 264 269 275 277 279 280 280 275 267 264 267 268 268 268 270 273 277 283 288 289 289 288 290 294 296 299 299 296 296 300 303 301 299 299 300 299 296 297 300 302 303 302 300 299 302 305 303 300 297 296 296 294 293 294 295
220 222 224 228 230 231 231 229 228 227 227 226 226 226 228 230 232 235 238 241 242 244 246 248 250 253 256 258 262 266 267 270 275 279 283 282 285 288 280 274 275 275 275 274 275 282 289 292 291 289 288 287 289 293 296 299 299 297 299 303 304 303 305 306 306 306 305 305 305 303 304 305 303 299 300 303 303 299 297 298 298 296 296 297 297
218 220 223 226 229 230 230 228 226 226 226 224 224 223 225 227 230 234 239 243 244 246 248 251 255 258 260 261 263 266 267 268 272 277 281 283 284 289 290 289 285 276 280 288 287 289 298 308 311 307 305 303 300 302 305 305 304 304 304 303 303 307 310 308 307 309 310 309 307 305 307 309 308 305 302 301 298 296 296 298 298 296 296 297 297
216 218 220 222 226 229 230 228 226 225 224 224 225 225 228 230 235 240 245 246 245 246 250 254 259 261 260 261 261 261 261 263 266 268 271 274 275 279 284 289 293 293 297 301 289 283 299 315 316 311 313 310 306 307 308 306 304 307 308 307 309 312 311 308 309 313 315 314 312 310 310 312 311 310 307 300 297 297 297 298 298 297 296 297 299
218 218 218 219 222 226 228 227 226 224 223 224 226 228 231 234 238 241 244 245 244 248 251 252 254 255 256 258 259 261 261 261 262 264 266 268 270 274 278 285 295 295 289 291 291 293 303 302 301 305 309 309 309 310 308 305 305 310 311 309 310 311 311 315 317 316 314 312 312 312 312 313 313 311 307 303 301 300 300 301 302 301 300 301 302
220 219 217 217 220 222 224 225 224 223 223 223 225 229 233 235 239 241 242 244 243 242 244 246 248 251 255 258 261 261 260 261 264 269 271 273 274 275 280 289 298 292 283 288 295 297 296 292 295 302 303 307 311 311 308 304 303 308 309 308 310 308 306 315 316 313 311 310 312 314 313 315 317 314 309 308 308 306 306 307 306 303 301 300 300
220 218 218 219 220 221 223 224 223 223 223 224 225 228 232 234 236 235 234 234 235 237 240 245 249 254 259 261 263 260 257 259 263 271 276 276 277 277 283 292 296 292 286 288 293 296 294 289 292 297 299 307 309 303 303 305 304 306 306 305 305 299 300 312 315 312 310 310 312 313 313 318 322 320 314 310 310 311 310 308 303 299 298 297 297
221 219 220 220 222 222 222 223 224 224 224 225 227 228 231 233 234 234 233 234 237 242 247 252 255 257 261 262 263 264 264 264 263 267 271 272 277 285 292 297 300 300 295 296 301 304 300 293 293 295 296 300 300 300 302 304 302 299 300 304 304 301 306 313 312 308 308 309 311 312 315 318 320 320 316 310 307 309 308 307 304 301 299 300 301
223 222 222 222 222 223 223 224 225 225 225 226 227 229 231 233 236 238 240 242 245 250 255 255 253 253 256 259 260 262 264 264 263 262 261 265 279 290 290 289 291 289 288 293 294 290 290 291 290 290 295 298 298 299 298 299 299 296 298 305 305 302 304 309 310 310 310 310 309 311 314 316 316 315 314 313 312 312 311 311 310 311 310 309 309
223 224 224 223 223 223 224 225 226 226 227 229 231 232 234 235 237 239 241 244 245 248 251 250 251 253 255 256 257 260 260 259 260 257 252 253 257 261 262 263 265 264 264 270 273 269 268 271 271 275 283 287 291 291 287 292 300 299 299 300 298 298 301 307 313 315 313 309 309 312 314 314 313 310 310 314 317 316 315 315 315 316 317 316 316
224 225 226 226 226 226 227 228 228 229 230 232 234 235 237 237 238 239 241 243 243 241 242 246 249 251 254 258 262 264 263 261 263 260 251 248 247 249 254 255 255 258 262 265 269 267 266 271 273 274 275 275 280 286 289 295 300 298 300 305 306 308 310 311 311 311 311 310 311 314 315 312 311 310 312 314 316 317 318 318 318 319 320 320 321
225 227 228 229 229 229 229 230 230 232 233 234 235 236 237 238 238 238 239 241 240 237 236 239 243 246 252 258 262 263 261 263 268 267 259 257 259 261 264 267 267 269 273 276 280 280 282 287 287 287 288 285 278 278 283 290 292 290 292 300 304 305 309 312 309 306 306 308 310 310 309 311 311 312 314 314 314 316 318 320 321 323 324 324 325
226 228 229 230 230 230 230 231 232 233 234 235 235 235 236 237 238 238 237 237 236 235 235 237 242 247 250 254 256 258 259 260 262 264 266 271 276 277 277 279 283 286 288 290 292 295 299 303 304 304 307 304 295 291 288 284 284 285 285 289 292 294 298 301 302 304 304 304 307 305 305 310 310 310 313 314 314 316 319 322 324 326 326 326 327